AO-07 1 07530U 74089B 18151.50705160 -.00000040 00000-0 28266-4 0 9996 2 07530 101.6858 119.0779 0012273 009.8199 103.3303 12.53632766992274 UO-11 1 14781U 84021B 18151.60469512 .00000076 00000-0 15588-4 0 9999 2 14781 097.6504 188.5270 0009669 131.0178 229.1874 14.83007081820988 LO-19 1 20442U 90005G 18151.38383959 -.00000000 00000-0 16138-4 0 9994 2 20442 98.6094 89.9796 0011352 194.5545 165.5313 14.32896600481481 HUBBLE 1 20580U 90037B 18151.59326733 .00000417 00000-0 14524-4 0 9990 2 20580 028.4687 224.8039 0002603 327.1852 177.5794 15.09045155342878 MET-2/21 1 22782U 93055A 18151.47599611 .00000052 00000-0 33827-4 0 9995 2 22782 082.5485 107.1941 0022385 170.2428 329.2776 13.83809878249592 AO-27 1 22825U 93061C 18151.77817981 -.00000018 00000-0 10966-4 0 9998 2 22825 98.8613 127.5970 0009145 40.4032 319.7827 14.30031165287221 IO-26 1 22826U 93061D 18151.51899055 -.00000016 00000-0 11596-4 0 9991 2 22826 098.8556 127.3733 0009526 031.2549 328.9198 14.30362622287124 FO-29 1 24278U 96046B 18151.81426619 -.00000001 00000-0 32293-4 0 9996 2 24278 98.5185 352.8282 0350857 153.2638 208.7075 13.53083840 76026 NOAA-15 1 25338U 98030A 18151.56044096 .00000061 00000-0 44432-4 0 9999 2 25338 098.7698 167.9812 0009290 276.2290 083.7831 14.25855133042397 GO-32 1 25397U 98043D 18151.79640614 -.00000022 00000-0 95737-5 0 9994 2 25397 98.6491 92.5068 0002405 77.3272 282.8175 14.23646113 33396 ISS 1 25544U 98067A 18151.37845806 .00001264 00000-0 26359-4 0 9999 2 25544 051.6399 102.5027 0003948 138.3660 003.9342 15.54113216115909 NO-44 1 26931U 01043C 18151.57501492 -.00000048 00000-0 13231-4 0 9995 2 26931 067.0517 272.2723 0007645 277.0274 082.9958 14.30506313870108 SO-50 1 27607U 02058C 18151.47064437 -.00000022 00000-0 17731-4 0 9996 2 27607 064.5537 141.1318 0063500 332.0262 027.7431 14.75452156830369 CO-55 1 27844U 03031E 18151.56503356 .00000041 00000-0 38067-4 0 9994 2 27844 098.6866 160.4666 0010912 063.4056 296.8238 14.22114986773795 CO-57 1 27848U 03031J 18151.51973733 .00000030 00000-0 33493-4 0 9999 2 27848 098.6952 160.8145 0010897 072.8168 287.4202 14.21718757773669 RS-22 1 27939U 03042A 18151.88809237 .00000107 00000-0 27715-4 0 9994 2 27939 97.9882 291.4455 0012630 194.3817 317.4524 14.66689206784429 NOAA-18 1 28654U 05018A 18151.60021249 .00000012 00000-0 31422-4 0 9998 2 28654 099.1461 186.7149 0014631 169.9020 190.2448 14.12376972671346 CO-58 1 28895U 05043F 18151.38944226 .00000090 00000-0 26137-4 0 9990 2 28895 097.9071 303.5276 0018125 120.4554 239.8442 14.63548293671181 Falconsat-3 1 30776U 07006E 18151.61501411 .00001851 00000-0 55676-4 0 9999 2 30776 035.4366 012.2432 0003724 250.3631 109.6693 15.34471411621770 CO-65 1 32785U 08021C 18151.50671346 .00000206 00000-0 27991-4 0 9994 2 32785 097.5474 164.4812 0014751 093.5246 266.7659 14.88121945546623 AAUSAT2 1 32788U 08021F 18151.61600095 .00000779 00000-0 77437-4 0 9997 2 32788 097.5224 178.8114 0013063 050.2179 310.0190 14.94341760547601 DO-64 1 32789U 08021G 18151.56845374 .00001690 00000-0 11984-3 0 9990 2 32789 097.5129 206.7985 0012224 002.4880 357.6406 15.06043971549188 CO-66 1 32791U 08021J 18151.75685794 .00000245 00000-0 30449-4 0 9995 2 32791 97.5366 170.0411 0015034 75.4207 284.8678 14.90552597547064 RS-30 1 32953U 08025A 18151.70093212 .00000023 00000-0 98686-4 0 9993 2 32953 82.5048 22.9348 0018109 245.6089 114.3101 12.43083091454726 PRISM 1 33493U 09002B 18151.71664006 -.00000132 00000-0 -60437-5 0 9992 2 33493 98.1335 53.1753 0016235 15.1975 344.9734 14.96206755507889 NOAA-19 1 33591U 09005A 18151.56214988 .00000071 00000-0 63743-4 0 9999 2 33591 099.1408 129.2597 0014341 017.8378 342.3293 14.12281897479566 TISAT-1 1 36799U 10035E 18151.60484240 .00000353 00000-0 42011-4 0 9990 2 36799 098.1041 287.3833 0010974 261.7054 098.2919 14.90796191427489 JUGNU 1 37839U 11058B 18151.25933323 .00000304 00000-0 20405-4 0 9993 2 37839 019.9600 139.8944 0019139 060.7057 053.0290 14.12620351342860 SRMSAT 1 37841U 11058D 18151.47130446 .00000298 00000-0 18557-4 0 9992 2 37841 019.9706 187.4703 0011737 308.0510 192.0544 14.10607187342428 AO-71 1 37854U 11061E 18151.59849650 .00001318 00000-0 76111-4 0 9991 2 37854 101.7036 208.0732 0163956 122.7105 239.0035 15.05415664358888 HRBE 1 37855U 11061F 18151.18184162 .00001415 00000-0 79726-4 0 9990 2 37855 101.7167 205.0198 0176918 132.5966 229.0324 15.04387980358623 ALMASAT-1 1 38078U 12006B 18151.57504275 .00031073 39374-5 27829-3 0 9992 2 38078 069.4319 262.7065 0240987 131.8005 338.0873 15.39866005338094 HORYU-2 1 38340U 12025D 18151.59609002 .00000184 00000-0 35050-4 0 9995 2 38340 098.3667 172.7470 0010173 262.9805 097.0246 14.75554114314251 RS-40 1 38735U 12041C 18151.52751522 .00000005 00000-0 -35064-4 0 9997 2 38735 082.4751 107.0066 0017016 355.0469 005.0439 12.42576287264931 BEESAT-3 1 39134U 13015E 18151.54491297 .00000941 00000-0 54045-4 0 9993 2 39134 064.8626 180.7425 0013500 214.5698 145.4552 15.19136894281997 BEESAT-2 1 39136U 13015G 18151.56937328 .00000707 00000-0 46482-4 0 9993 2 39136 064.8689 196.5454 0022479 239.2221 120.6692 15.16124773281682 ZACUBE-1 1 39417U 13066B 18151.62570357 .00000179 00000-0 29058-4 0 9996 2 39417 97.5879 181.1483 0058384 208.0534 151.7529 14.80933615244344 TRITON-1 1 39427U 13066M 18151.80161608 .00000208 00000-0 41460-4 0 9996 2 39427 97.6410 148.8131 0112895 312.4220 46.7478 14.67664964242175 GOMX-1 1 39430U 13066Q 18151.77666019 .00000169 00000-0 39577-4 0 9994 2 39430 97.6965 129.8327 0152264 22.9032 337.8865 14.59076726240769 LO-74 1 39440U 13066AA 18151.59557147 .00000215 00000-0 37152-4 0 9995 2 39440 097.6017 167.8172 0078998 249.0294 110.2450 14.75670082242275 AO-73 1 39444U 13066AE 18151.56282685 .00000265 00000-0 39191-4 0 9998 2 39444 097.5889 182.5931 0057648 203.6301 156.2264 14.81711057242601 SPROUT 1 39770U 14029E 18151.83654713 .00000394 00000-0 50315-4 0 9999 2 39770 97.8761 253.0192 0007451 259.5547 100.4826 14.86833771217933 DUCHIFAT-1 1 40021U 14033M 18151.34026872 .00000292 00000-0 35975-4 0 9992 2 40021 97.9168 70.0283 0011677 230.5450 129.4736 14.90301031214449 NANOSATCBR1 1 40024U 14033Q 18151.30583690 .00000325 00000-0 40034-4 0 9996 2 40024 97.9105 68.2707 0010939 232.9566 127.0651 14.89565045214363 EO-79 1 40025U 14033R 18151.74739095 .00000222 00000-0 29831-4 0 9995 2 40025 97.9062 67.1788 0011153 235.9891 124.0267 14.88710833214340 DTUSAT-2 1 40030U 14033W 18151.30466813 .00000234 00000-0 31320-4 0 9997 2 40030 097.9011 065.4544 0010667 232.0076 128.0178 14.88319014213714 EO-80 1 40032U 14033Y 18151.56359275 .00000246 00000-0 32699-4 0 9993 2 40032 097.9017 065.7156 0010615 231.6561 128.3702 14.88256461213735 ANTELSAT 1 40034U 14033AA 18151.57180589 .00000210 00000-0 38894-4 0 9990 2 40034 097.8133 028.8143 0057404 251.3147 108.1825 14.73920937211704 VELOX-1 1 40057U 14034E 18151.78377123 .00000247 00000-0 42354-4 0 9997 2 40057 98.2011 262.5488 0011478 28.0085 332.1739 14.77422272211222 DAURIA DX 1 1 40071U 14037C 18151.80063878 .00000082 00000-0 18056-4 0 9997 2 40071 98.3724 282.4328 0009026 22.0686 338.0919 14.81158789210577 UKUBE-1 1 40074U 14037F 18151.69744378 .00000240 00000-0 36181-4 0 9993 2 40074 98.3853 288.1237 0004977 25.0029 335.1426 14.83796080210855 HODOYOSHI-1 1 40299U 14070B 18151.77154457 .00000443 00000-0 21869-4 0 9993 2 40299 97.3774 233.8349 0011744 314.2908 159.3463 15.22886779197989 CHUBUSAT-1 1 40300U 14070C 18151.79162243 .00000542 00000-0 27016-4 0 9990 2 40300 97.3649 229.8368 0019167 324.2884 183.9422 15.21557878197780 QSAT-EOS 1 40301U 14070D 18151.79281899 .00001228 00000-0 52172-4 0 9993 2 40301 97.3594 231.0646 0025346 313.3647 195.5061 15.24713650197925 FIREBIRD FU3 1 40377U 15003B 18151.76461898 .00001405 00000-0 61619-4 0 9992 2 40377 99.0885 50.2555 0130239 285.5382 73.1500 15.17193280183831 FIREBIRD FU4 1 40378U 15003C 18151.75357388 .00001427 00000-0 62446-4 0 9993 2 40378 99.0888 50.2991 0130436 285.4643 73.2212 15.17202963183837 GRIFEX 1 40379U 15003D 18151.69094501 .00001055 00000-0 50560-4 0 9993 2 40379 99.0916 46.4488 0137520 298.1284 60.6102 15.14317242183608 NO-84 1 40654U 15025D 18150.33271348 .00007573 00000-0 12453-3 0 03127 2 40654 054.9895 116.9610 0162079 064.5285 297.2388 15.40182542053098 NO-83 1 40655U 15025E 18150.22306144 .00020456 00000-0 21638-3 0 03589 2 40655 054.9759 062.6288 0113742 096.3715 265.0324 15.56479749053481 DEORBITSAIL 1 40719U 15032E 18151.58035840 .00000401 00000-0 64825-4 0 9995 2 40719 097.9468 045.3661 0017885 099.7763 260.5467 14.76428578155723 NUDT-PHONESAT 1 40900U 15049B 18151.59837819 .00001918 00000-0 88719-4 0 9994 2 40900 097.4411 160.0425 0015369 087.8084 272.4911 15.21260269149394 XW-2A 1 40903U 15049E 18151.80766712 .00001847 00000-0 47578-4 0 9993 2 40903 97.3852 186.4995 0016036 89.8294 270.4790 15.40442323151284 XW-2C 1 40906U 15049H 18151.80825931 .00000576 00000-0 34099-4 0 9997 2 40906 97.4597 155.6003 0016804 87.1647 273.1508 15.15175586149019 XW-2D 1 40907U 15049J 18151.82837375 .00000625 00000-0 36590-4 0 9998 2 40907 97.4571 155.3188 0016165 85.2527 275.0551 15.15325662149021 LILACSAT-2 1 40908U 15049K 18151.55078634 .00000351 00000-0 23181-4 0 9992 2 40908 097.4682 154.4268 0017785 087.4832 272.8435 15.13502230148858 XW-2F 1 40910U 15049M 18151.85580334 .00001030 00000-0 56101-4 0 9996 2 40910 97.4572 156.6311 0016900 81.2486 279.0661 15.16509991148985 XW-2B 1 40911U 15049N 18151.84527784 .00000657 00000-0 38340-4 0 9995 2 40911 97.4606 155.8671 0016071 85.6725 274.6344 15.15270205148922 DCBB 1 40912U 15049P 18151.82041757 .00001091 00000-0 55672-4 0 9995 2 40912 97.4500 159.3806 0017193 70.1776 54.5478 15.18724086149182 TW-1C 1 40926U 15051B 18151.79655113 .00006971 00000-0 13128-3 0 9997 2 40926 97.1844 194.2171 0009104 348.9543 100.6670 15.48797818150779 TW-1A 1 40928U 15051D 18151.56851705 .00002197 00000-0 59566-4 0 9992 2 40928 097.1861 185.8851 0012819 030.0887 121.5773 15.38634976150228 IO-86 1 40931U 15052B 18150.56432955 .00000550 00000-0 -12512-4 0 9990 2 40931 005.9986 275.7959 0013057 116.9882 243.1416 14.76575085144391 LQSat 1 40958U 15057A 18151.79480334 .00000005 00000-0 85475-5 0 9997 2 40958 97.9407 225.2959 0019010 33.4785 326.7616 14.73032287142431 AO-85 1 40967U 15058D 18150.44477631 -.00000092 00000-0 91490-5 0 03440 2 40967 064.7770 245.1363 0205504 319.0978 039.4854 14.75712394051031 ATHENOXAT-1 1 41168U 15077C 18151.61727204 .00001350 00000-0 36937-4 0 9996 2 41168 014.9842 141.5663 0011842 169.9820 325.8466 15.12748536135866 ChubuSat-2 1 41338U 16012B 18151.14500890 .00000285 00000-0 15533-4 0 9998 2 41338 031.0040 061.9225 0013978 264.2983 095.6058 14.99978064125273 ChubuSat-3 1 41339U 16012C 18151.09435583 .00000230 00000-0 11160-4 0 9991 2 41339 31.0119 60.8653 0013931 270.6345 89.2703 15.00165541125251 Horyu-4 1 41340U 16012D 18151.09624694 .00000424 00000-0 25664-4 0 9995 2 41340 031.0061 055.7017 0014209 283.2664 076.6387 15.00980205125327 OUFTI-1 1 41458U 16025C 18151.74552062 .00000445 00000-0 27781-4 0 9995 2 41458 98.1364 213.7181 0169362 202.2870 157.0926 15.04595702114965 e-st@r-II 1 41459U 16025D 18151.68295677 .00000462 00000-0 28772-4 0 9995 2 41459 98.1386 213.4986 0170370 203.1609 156.1861 15.04334748114948 AAUSAT4 1 41460U 16025E 18151.74364900 .00000915 00000-0 51675-4 0 9991 2 41460 98.1311 214.0365 0161827 199.0192 160.4940 15.05739955115018 LO-87 1 41557U 16033B 18151.80040188 .00001217 00000-0 47271-4 0 9996 2 41557 97.4377 236.0493 0013515 215.8358 144.1976 15.27958343111658 NuSat2 1 41558U 16033C 18151.80340553 .00001221 00000-0 47166-4 0 9994 2 41558 97.4392 236.1524 0012428 207.7677 152.2901 15.28147719111643 Lapan A3 1 41603U 16040E 18151.81071520 .00000199 00000-0 12555-4 0 9996 2 41603 97.4124 213.6304 0012077 301.9683 150.9647 15.19562505107592 Swayam 1 41607U 16040J 18151.22757902 .00001209 00000-0 55671-4 0 9999 2 41607 97.4141 214.4505 0012229 301.7045 58.2998 15.22184507107524 Pratham 1 41783U 16059A 18151.65364599 -.00000050 00000-0 -42886-6 0 9998 2 41783 98.1157 213.4783 0034221 145.9679 214.3718 14.62922766 89544 AlSat 1N 1 41789U 16059G 18151.76158965 .00000065 00000-0 21395-4 0 9998 2 41789 98.1197 214.7758 0029409 137.1826 223.1673 14.64155045 89615 ScatSat 1 41790U 16059H 18151.76123469 .00000018 00000-0 15672-4 0 9990 2 41790 98.2608 199.8488 0019071 138.7366 221.5275 14.50857235 88803 TY-1 1 41844U 16066D 18151.91354075 .00001222 00000-0 54461-4 0 9991 2 41844 97.4052 159.0945 0017490 93.3975 359.4709 15.23208092 86407 Pegasus-1 1 41846U 16066F 18151.55032354 .00000186 00000-0 39960-4 0 9991 2 41846 098.7549 179.6627 0367151 296.4221 059.9725 14.37333200081512 CAS-2T 1 41847U 16066G 18151.68896113 .00000050 00000-0 19182-4 0 9991 2 41847 98.7509 180.2405 0365164 293.5855 62.7382 14.37893611 81950 TO-89 1 41932U 98067KU 18151.37224600 .00026787 00000-0 17784-3 0 9999 2 41932 51.6348 67.4333 0004813 123.0910 237.0552 15.75259038 78112 AOBA-V3LOX3 1 41935U 98067KX 18151.17594187 .00037226 00000-0 20945-3 0 9993 2 41935 051.6371 064.5643 0004783 125.2446 234.9003 15.78828342078230 EO-88 1 42017U 17008BX 18151.55491876 .00001442 00000-0 61772-4 0 9999 2 42017 097.4491 216.7105 0008168 082.0946 278.1218 15.24394061071534 HAVELSAT 1 42700U 98067LH 18151.79803101 .00023984 00000-0 19697-3 0 9999 2 42700 51.6359 78.5436 0003881 161.2731 198.8410 15.70309228 59448 SOMP2 1 42701U 98067LJ 18151.83944882 .00018993 00000-0 16299-3 0 9996 2 42701 51.6365 79.5723 0003898 160.0569 200.0581 15.69410602 59420 PHOENIX 1 42706U 98067LP 18151.22678980 .00016515 00000-0 14789-3 0 9997 2 42706 51.6362 82.9884 0002460 100.1010 260.0264 15.68486762 59241 X-CubeSat 1 42707U 98067LQ 18151.78396175 .00023328 00000-0 18804-3 0 9994 2 42707 51.6333 78.3892 0002840 106.2709 253.8601 15.70781062 59342 qbee 1 42708U 98067LR 18151.78574230 .00021476 00000-0 17944-3 0 9991 2 42708 51.6371 79.2043 0002724 105.3314 254.7985 15.69970484 59291 ZA-AeroSat 1 42713U 98067LU 18151.81538954 .00015818 00000-0 14937-3 0 9996 2 42713 51.6356 82.4083 0003508 98.3640 261.7754 15.67207683 58961 LINK 1 42714U 98067LV 18151.81165492 .00053272 00000-0 30630-3 0 9994 2 42714 51.6267 72.4774 0004139 104.0261 256.1200 15.78185171 59205 UPSat 1 42716U 98067LX 18151.36967403 .00033500 00000-0 22889-3 0 9997 2 42716 051.6333 077.1334 0003031 139.7944 220.3280 15.74473586059126 SpaceCube 1 42717U 98067LY 18151.81140052 .00021860 00000-0 18283-3 0 9990 2 42717 51.6346 79.3580 0002937 148.1945 211.9230 15.69933306 58379 Hoopoe 1 42718U 98067LZ 18151.80693529 .00029340 00000-0 22051-3 0 9991 2 42718 51.6362 77.0813 0003109 140.4580 219.6645 15.72310415 58407 Challenger 1 42721U 98067MA 18151.77961650 .00085727 00000-0 37792-3 0 9993 2 42721 51.6292 68.4881 0005254 143.2377 216.8987 15.83762340 58217 NJUST-1 1 42722U 98067MB 18151.80251613 .00014377 00000-0 14116-3 0 9997 2 42722 51.6364 83.8417 0005530 153.6580 206.4698 15.66315215 58010 UNSW-EC0 1 42723U 98067MC 18151.81460541 .00030615 00000-0 22388-3 0 9994 2 42723 51.6375 77.1612 0005100 144.9995 215.1340 15.72924546 58080 DUTHsat 1 42724U 98067MD 18151.21452444 .00071523 00000-0 34584-3 0 9996 2 42724 51.6337 73.0303 0004856 141.7683 218.3664 15.81864052 58008 LO-90 1 42725U 98067ME 18151.35974017 .00020072 00000-0 17775-3 0 9993 2 42725 51.6364 83.8775 0004594 147.2074 212.9208 15.68594943 57888 nSIGHT1 1 42726U 98067MF 18151.86520951 .00006672 00000-0 83023-4 0 9994 2 42726 51.6390 89.5662 0005280 161.0380 199.0811 15.61290256 57858 SNUSAT 1B 1 42727U 98067MG 18151.24307126 .00020916 00000-0 18562-3 0 9996 2 42727 51.6345 84.5506 0006936 121.1489 239.0188 15.68496920 57829 QBITO 1 42728U 98067MH 18151.83887097 .00023034 00000-0 19075-3 0 9996 2 42728 51.6388 79.6230 0002999 133.3682 226.7565 15.70137416 57783 Aalto-2 1 42729U 98067MJ 18151.82070522 .00023562 00000-0 19306-3 0 9996 2 42729 51.6361 79.4472 0003033 132.6558 227.4695 15.70379484 57791 SUSat 1 42730U 98067MK 18151.79782900 .00020289 00000-0 17649-3 0 9995 2 42730 51.6362 80.7896 0003042 136.5314 223.5923 15.69030208 57766 i-INSPIRE II 1 42731U 98067ML 18151.81388332 .00034319 00000-0 24430-3 0 9995 2 42731 51.6344 76.3358 0006472 114.0344 246.1332 15.73485948 57872 PolyITAN-2-SAU 1 42732U 98067MM 18151.40534427 .00022382 00000-0 18209-3 0 9993 2 42732 51.6357 81.1419 0006673 110.4696 249.7019 15.70567771 57774 ExAlta-1 1 42734U 98067MP 18151.80242529 .00034496 00000-0 23988-3 0 9997 2 42734 51.6332 76.2363 0006901 131.8119 228.3470 15.74026167 57826 Aoxiang-1 1 42735U 98067MQ 18151.83473246 .00014291 00000-0 13871-3 0 9994 2 42735 51.6359 83.2849 0006003 152.1856 207.9462 15.66608152 59153 BeEagleSat 1 42736U 98067MR 18151.84210876 .00016487 00000-0 15089-3 0 9996 2 42736 51.6355 81.8240 0005742 150.3210 209.8114 15.67938869 57865 CAS-4B 1 42759U 17034B 18151.83817130 .00000121 00000-0 21065-4 0 9991 2 42759 43.0176 173.0196 0009783 356.9718 353.7343 15.09290299 52970 CAS-4A 1 42761U 17034D 18151.82289352 .00000087 00000-0 18929-4 0 9998 2 42761 43.0182 172.8876 0009662 357.0602 5.5096 15.09365979 52977 UCLSat 1 42765U 17036A 18151.11346819 .00001071 00000-0 50166-4 0 9991 2 42765 097.4019 211.2367 0013216 131.4047 228.8328 15.21806975052702 NIUSat 1 42766U 17036B 18151.61411685 .00000998 00000-0 48844-4 0 9998 2 42766 097.4020 211.0415 0017581 119.4781 240.8211 15.20358236052017 LituanicaSAT 2 1 42768U 17036D 18151.16528027 .00001836 00000-0 84891-4 0 9993 2 42768 097.4036 210.8970 0017395 123.2486 237.0420 15.21300207051977 Aalto 1 1 42775U 17036L 18151.58318267 .00000812 00000-0 39936-4 0 9993 2 42775 097.4013 211.2165 0015764 119.6909 240.5898 15.20720959051975 URSA MAIOR 1 42776U 17036M 18151.70218534 .00000874 00000-0 42660-4 0 9990 2 42776 97.4020 211.3809 0015629 119.4828 240.7969 15.20796244 51991 Max Valier Sat 1 42778U 17036P 18151.60526442 .00000985 00000-0 47049-4 0 9990 2 42778 097.4045 211.5928 0014235 124.0490 236.2099 15.21273791051984 Pegasus 1 42784U 17036V 18151.60911814 .00001133 00000-0 53127-4 0 9998 2 42784 097.4023 211.6545 0013759 130.0790 230.1654 15.21620082051993 NUDATSat 1 42787U 17036Y 18151.59932981 .00001672 00000-0 75768-4 0 9990 2 42787 097.4030 211.8302 0013359 129.7642 230.4773 15.22177238051844 SUCHAI 1 1 42788U 17036Z 18151.10900979 .00001235 00000-0 57231-4 0 9990 2 42788 97.4025 211.2536 0013354 131.4934 228.7450 15.21879706 51997 SKCUBE 1 42789U 17036AA 18151.17377592 .00001146 00000-0 53390-4 0 9990 2 42789 097.4021 211.3135 0013185 131.1910 229.0465 15.21845772051922 VZLUSAT 1 1 42790U 17036AB 18151.58886304 .00001593 00000-0 72259-4 0 9994 2 42790 097.4026 211.8280 0012894 129.9635 230.2736 15.22198845051995 VENTA 1 1 42791U 17036AC 18151.61613332 .00001157 00000-0 53767-4 0 9997 2 42791 097.4021 211.7874 0012832 130.2220 230.0141 15.21900679051988 Robusta 1B 1 42792U 17036AD 18151.60424061 .00001278 00000-0 58952-4 0 9991 2 42792 097.4021 211.7962 0012776 130.5599 229.6752 15.21987114052001 D-SAT 1 42794U 17036AF 18151.60005871 .00000129 00000-0 16972-4 0 9997 2 42794 097.5927 206.8816 0126416 338.1510 021.4345 14.90862120051254 BIRD-J 1 42820U 98067MU 18151.26560364 .00017159 00000-0 16262-3 0 9997 2 42820 51.6355 86.9815 0004223 92.3828 267.7652 15.67042801 51200 BIRD-G 1 42821U 98067MV 18151.82245203 .00017259 00000-0 16664-3 0 9999 2 42821 51.6356 84.7022 0004173 96.2363 263.9108 15.66573675 51266 BIRD-M 1 42822U 98067MW 18151.87026977 .00018002 00000-0 17201-3 0 9995 2 42822 51.6357 84.2748 0004152 97.7838 262.3630 15.66799675 51272 BIRD-B 1 42823U 98067MX 18151.22942647 .00017459 00000-0 16651-3 0 9999 2 42823 51.6363 87.5114 0006197 114.9715 245.1925 15.66861830 51178 BIRD-N 1 42824U 98067MY 18151.82556828 .00017560 00000-0 16857-3 0 9999 2 42824 51.6369 84.7583 0006054 116.7869 243.3747 15.66694838 51259 TechnoSat 1 42829U 17042E 18151.78563609 .00000094 00000-0 15000-4 0 9992 2 42829 97.5983 54.7559 0012723 252.7334 107.2493 14.90818701 47886 TOMSK-TPU 120 1 42910U 98067MZ 18151.32881989 .00011715 00000-0 12822-3 0 9993 2 42910 051.6355 091.1475 0006444 134.8722 225.2797 15.63771560044749 TANYUSHA 1 1 42911U 98067NA 18151.76973524 .00014467 00000-0 15134-3 0 9995 2 42911 51.6363 88.1281 0006168 130.6411 229.5121 15.64701596 44800 TANYUSHA 2 1 42912U 98067NB 18151.76633983 .00013845 00000-0 14817-3 0 9994 2 42912 51.6373 88.8276 0005306 139.1535 220.9858 15.64168235 44817 SFERA 2 1 42913U 98067NC 18151.40284819 .00032396 00000-0 25353-3 0 9995 2 42913 051.6343 084.1087 0004397 132.0933 228.0439 15.71287486044842 TNS 0-2 1 42914U 98067ND 18151.43591143 .00012179 00000-0 13416-3 0 9994 2 42914 051.6367 091.1515 0005478 134.0385 226.1062 15.63563181044725 QIKCOM-1 1 42983U 98067NF 18151.89657554 .00002746 00000-0 45423-4 0 9992 2 42983 51.6400 98.0229 0004740 130.4505 229.6900 15.56139625 33688 AO-91 1 43017U 17073E 18151.35646339 .00000634 00000-0 55784-4 0 9994 2 43017 097.7072 083.1873 0259056 326.7361 031.7793 14.78064348028627 EcAMSat 1 43019U 98067NG 18151.85198342 .00003983 00000-0 61080-4 0 9995 2 43019 51.6400 97.7266 0005739 107.9553 252.2065 15.56898868116000 PICSAT 1 43132U 18004X 18151.61437462 .00001244 00000-0 56599-4 0 9994 2 43132 097.5350 214.2484 0010916 148.8599 211.3286 15.22598017021196 AO-92 1 43137U 18004AC 18151.73507371 .00000983 00000-0 45279-4 0 9991 2 43137 97.5346 214.3902 0010391 149.7773 210.4064 15.22675378 21205 TianYi 2 1 43155U 18008A 18151.86825260 .00000785 00000-0 51353-4 0 9999 2 43155 97.5250 226.6209 0017762 195.5038 270.3555 15.10533369 20026 Zhou Enlai 1 43156U 18008B 18151.79217343 .00000301 00000-0 22439-4 0 9996 2 43156 97.5298 226.5135 0014740 191.2125 317.8277 15.09986361 20007 TianYi 6 1 43158U 18008D 18151.86852169 .00000930 00000-0 61571-4 0 9995 2 43158 97.5262 226.4658 0013717 187.9852 243.7074 15.09701803 19995 S-Net G 1 43186U 18014G 18151.77314488 .00000347 00000-0 35678-4 0 9991 2 43186 97.7268 60.4591 0010271 198.6938 161.3907 14.96450185 17865 S-Net H 1 43187U 18014H 18151.77307787 .00000348 00000-0 35796-4 0 9998 2 43187 97.7265 60.4564 0010258 198.6378 161.4469 14.96451058 17860 S-Net J 1 43188U 18014J 18151.77300980 .00000357 00000-0 36543-4 0 9998 2 43188 97.7269 60.4602 0010252 198.7247 161.3598 14.96451877 17869 S-Net K 1 43189U 18014K 18151.57249926 .00000382 00000-0 38747-4 0 9995 2 43189 097.7267 060.2577 0010255 199.3032 160.7802 14.96450526016386 FMN 1 1 43192U 18015A 18151.60962566 .00001683 00000-0 74904-4 0 9996 2 43192 097.3531 280.8430 0016273 196.5290 163.5419 15.22734951017999 Shaonian Xing 1 43199U 18015H 18151.60122329 .00001254 00000-0 55122-4 0 9993 2 43199 097.3319 280.6590 0016855 210.0048 150.0224 15.23627075018012 1KUNS-PF 1 43466U 98067NP 18151.85981882 .00008558 00000-0 13086-3 0 9995 2 43466 51.6406 99.9528 0001698 88.6790 301.6744 15.55274035 3163 UBAKUSAT 1 43467U 98067NQ 18151.41956112 .00006727 00000-0 10440-3 0 9993 2 43467 051.6406 102.1445 0003906 075.9377 011.0404 15.55273336003093 Irazu 1 43468U 98067NR 18151.27532299 .00009769 00000-0 14793-3 0 9998 2 43468 51.6417 102.8617 0001702 77.3882 282.7302 15.55353874103050 /EX